Miscellaneous Local Product
Issued by NWS North Platte, NE

Home | Current Version | Previous Version | Text Only | Print | Product List | Glossary On
Versions: 1 2 3 4 5 6 7 8 9 10 11 12 13 14 15 16 17 18 19 20 21 22 23 24 25 26 27 28 29 30 31 32 33 34 35 36 37 38 39 40 41 42 43 44 45 46 47 48 49 50
000
AXUS43 KLBF 230310
MISLBF


WESTERN AND NORTH CENTRAL NEBRASKA HOURLY WEATHER ROUNDUP
NATIONAL WEATHER SERVICE NORTH PLATTE NE
1000 PM CDT TUE AUG 22 2017

NOTE: "FAIR" INDICATES FEW OR NO CLOUDS BELOW 12,000 FEET WITH NO
SIGNIFICANT WEATHER AND/OR OBSTRUCTIONS TO VISIBILITY.

NOTE: STATIONS NOT REPORTING VARIABLES SUCH AS SKY/WEATHER OR
PRESSURE ARE PROVIDED BY RAWS AND APRS NETWORKS AND ARE NOT UNDER
NATIONAL WEATHER SERVICE QUALITY CONTROL.

...OBSERVATIONS IN AND NEAR THE EASTERN PANHANDLE OF NEBRASKA...

CITY           SKY/WX    TMP DP  RH WIND       PRES   REMARKS
PINE RIDGE     CLEAR     74  47  38 S10       30.12S
GORDON         FAIR      66  47  49 SE5       30.16R
CHADRON        CLEAR     74  47  38 S16       30.10S
ALLIANCE       CLEAR     63  50  62 SE10      30.17R
SIDNEY         CLOUDY    68  51  54 S13       30.20R
$$

...OBSERVATIONS IN NORTHERN NEBRASKA AND FAR SOUTHERN SOUTH DAKOTA...

CITY           SKY/WX    TMP DP  RH WIND       PRES   REMARKS
WINNER         FAIR      65  55  70 SE9       30.13S
VALENTINE      CLEAR     68  49  50 SE9       30.15R
THEDFORD       CLEAR     68  51  54 S10       30.19R
AINSWORTH      CLEAR     62  53  73 SE8       30.17R
O`NEILL        CLEAR     64  55  72 SE5       30.17S
ORD            CLEAR     61  56  83 CALM      30.17R
BROKEN BOW     CLEAR     62  55  77 CALM      30.19R
VALENTINE NWR    N/A     63  51  63 S6          N/A
HALSEY           N/A     69  49  49 SE6         N/A
BUTTE            N/A     65  53  65 SE5         N/A
CHAMBERS         N/A     60  51  71 CALM        N/A
EWING            N/A     59  55  87 CALM        N/A
$$

...OBSERVATIONS IN SOUTHWEST NEBRASKA AND FAR NORTHEAST COLORADO...

CITY           SKY/WX    TMP DP  RH WIND       PRES   REMARKS
WRAY           FAIR      68  54  60 SE9       30.21R
HOLYOKE        FAIR      63  55  77 S9        30.20R
IMPERIAL       CLOUDY    61  52  72 SE8       30.20R
OGALLALA       CLEAR     67  52  58 SE8       30.18S
NORTH PLATTE   CLEAR     61  56  83 E8        30.19R
MCCOOK         CLOUDY    65  54  67 E7        30.20R
LEXINGTON      CLEAR     63  56  76 SE3       30.20R
STAPLETON        N/A     63  53  69 CALM        N/A
GOTHENBURG       N/A     68  54  61 CALM        N/A
CALLAWAY         N/A     66  58  76 S3          N/A
$$

...OBSERVATIONS IN CENTRAL LINCOLN COUNTY AREA...

CITY           SKY/WX    TMP DP  RH WIND       PRES   REMARKS
N.P. AIRPORT   CLEAR     61  56  83 E8        30.19R
N.P. DOWNTOWN    N/A     67  55  66 CALM        N/A
N.P. SOUTHEAST   N/A     65  55  69 SE3         N/A
N.P. HILLCREST   N/A     65  55  70 SE9         N/A
$$

...SOME OBSERVATIONS FROM AROUND THE REGION...

CITY           SKY/WX    TMP DP  RH WIND       PRES   REMARKS
DENVER         CLOUDY    72  52  49 S14       30.22R
LIMON          CLEAR     62  54  74 S8        30.29R
ASPEN          CLOUDY    60  45  57 SE12      30.44R
LARAMIE        CLOUDY    61  53  75 SE12      30.31R
CASPER         CLEAR     73  40  30 E9        30.17R
CHEYENNE       CLEAR     68  53  58 S12       30.25S
SCOTTSBLUFF    CLEAR     69  53  56 E12       30.15R
GRAND ISLAND   CLEAR     63  57  81 SE5       30.19R
OMAHA          PTCLDY    64  56  75 CALM      30.15R
SIOUX FALLS    CLEAR     60  55  83 CALM      30.14R
PIERRE         CLEAR     66  51  58 E6        30.10R
RAPID CITY     CLEAR     70  46  42 E10       30.10R
BISMARCK       CLEAR     63  47  55 E3        30.12S
KANSAS CITY    CLEAR     62  54  74 N8        30.14R
HILL CITY      CLEAR     66  53  63 E6        30.20R
WICHITA        CLEAR     75  52  44 NE13      30.11R
DODGE CITY       N/A     68  53  58 MISG      30.18R
OKLAHOMA CITY  RAIN      71  69  93 NW7       30.09F
DALLAS         MOCLDY    89  68  49 SE7       29.97R HX  93
AMARILLO       CLOUDY    66  63  90 N7        30.20R
$$




USA.gov is the U.S. government's official web portal to all federal, state and local government web resources and services.